Willmar, MN

11:56 PM CDT on October 18, 2017 (GMT -0500)
Willmar

Weather History for KBDH - June, 2014

Change the Weather History Date:

Sunday, June 15, 2014

  Actual Average (KBBB) Record (KBBB)
Temperature  
Mean Temperature 67 °F -  
Max Temperature 75 °F 75 °F 92 °F (1959)
Min Temperature 59 °F 55 °F 40 °F (1968)
Cooling Degree Days 2    
Growing Degree Days 17 (Base 50)    
Moisture  
Dew Point 56 °F    
Average Humidity 72    
Maximum Humidity 94    
Minimum Humidity 44    
Precipitation  
Precipitation 0.53 in - - ()
Sea Level Pressure  
Sea Level Pressure 29.65 in    
Wind  
Wind Speed 15 mph (SSW)    
Max Wind Speed 26 mph    
Max Gust Speed 32 mph    
Visibility 10 miles    
Events Rain , Thunderstorm    
Averages and records for this station are not official NWS values.
T = Trace of Precipitation, MM = Missing Value Source: NWS Daily Summary

Daily Weather History Graph

Daily Weather History Graph

Search for Another Location

Airport or City:

Trip Planner

Search our weather history database for the weather conditions in past years. The results will help you decide how hot, cold, wet, or windy it might be!

Date:

Astronomy

Jun. 15, 2014 Rise Set
Actual Time 5:32 AM CDT 9:09 PM CDT
Civil Twilight 4:55 AM CDT 9:47 PM CDT
Nautical Twilight 4:05 AM CDT 10:36 PM CDT
Astronomical Twilight 2:59 AM CDT 11:43 PM CDT
Moon 11:11 PM CDT (6/15) 8:33 AM CDT (6/15)
Length of Visible Light 16h 51m
Length of Day
15h 36m
Waning Gibbous, 91% of the Moon is Illuminated
Jun 15
Waning Gibbous
Jun 19
Last Quarter
Jun 27
New
Jul 5
First Quarter
Jul 12
Full

Hourly Weather History & Observations

Time (CDT) Temp. Dew Point Humidity Pressure Visibility Wind Dir Wind Speed Gust Speed Precip Events Conditions
12:15 AM 59.0 °F 57.2 °F 94% 29.62 in 10.0 mi East 19.6 mph 31.1 mph N/A   Scattered Clouds
12:35 AM 59.0 °F 57.2 °F 94% 29.64 in 10.0 mi East 10.4 mph - N/A   Light Drizzle
12:55 AM 59.0 °F 57.2 °F 94% 29.63 in 10.0 mi East 18.4 mph 21.9 mph N/A   Mostly Cloudy
1:15 AM 59.0 °F 57.2 °F 94% 29.61 in 10.0 mi ESE 17.3 mph 26.5 mph N/A Thunderstorm Scattered Clouds
1:35 AM 60.8 °F 57.2 °F 88% 29.62 in 10.0 mi ESE 12.7 mph - N/A   Scattered Clouds
1:55 AM 60.8 °F 59.0 °F 94% 29.62 in 10.0 mi SE 11.5 mph - N/A   Mostly Cloudy
2:15 AM 62.6 °F 59.0 °F 88% 29.61 in 10.0 mi SE 10.4 mph - N/A   Scattered Clouds
2:35 AM 62.6 °F 59.0 °F 88% 29.61 in 10.0 mi SSE 11.5 mph - N/A   Mostly Cloudy
2:55 AM 62.6 °F 57.2 °F 82% 29.59 in 10.0 mi SE 15.0 mph - N/A   Mostly Cloudy
3:15 AM 62.6 °F 57.2 °F 82% 29.58 in 10.0 mi SE 16.1 mph 24.2 mph N/A   Scattered Clouds
3:35 AM 62.6 °F 55.4 °F 77% 29.59 in 10.0 mi SE 16.1 mph 21.9 mph N/A   Scattered Clouds
3:55 AM 62.6 °F 55.4 °F 77% 29.58 in 10.0 mi SE 17.3 mph - N/A   Mostly Cloudy
4:15 AM 60.8 °F 55.4 °F 82% 29.61 in 10.0 mi SE 17.3 mph 25.3 mph N/A   Mostly Cloudy
4:35 AM 60.8 °F 55.4 °F 82% 29.61 in 10.0 mi SE 18.4 mph 25.3 mph N/A Rain Rain
4:56 AM 60.8 °F 57.2 °F 88% 29.59 in 10.0 mi SE 13.8 mph 23.0 mph N/A Rain Light Rain
5:15 AM 60.8 °F 57.2 °F 88% 29.59 in 10.0 mi SE 16.1 mph 21.9 mph 0.05 in Rain Rain
5:35 AM 60.8 °F 57.2 °F 88% 29.58 in 10.0 mi SE 18.4 mph 23.0 mph 0.09 in Rain Rain
6:15 AM 60.8 °F 55.4 °F 82% 29.56 in 10.0 mi SE 15.0 mph 20.7 mph 0.02 in Rain Light Rain
6:35 AM 60.8 °F 55.4 °F 82% 29.56 in 10.0 mi SE 18.4 mph - 0.05 in Rain Light Rain
6:55 AM 60.8 °F 55.4 °F 82% 29.54 in 10.0 mi SE 16.1 mph 20.7 mph 0.06 in Rain Light Rain
7:15 AM 60.8 °F 55.4 °F 82% 29.53 in 10.0 mi SE 12.7 mph - N/A Rain Light Rain
7:35 AM 59.0 °F 55.4 °F 88% 29.53 in 10.0 mi SE 12.7 mph 18.4 mph 0.01 in Rain Rain
7:55 AM 59.0 °F 55.4 °F 88% 29.52 in 10.0 mi SE 10.4 mph - 0.04 in Rain Rain
8:15 AM 59.0 °F 57.2 °F 94% 29.52 in 7.0 mi SSE 8.1 mph - 0.02 in Rain Light Rain
8:35 AM 59.0 °F 57.2 °F 94% 29.52 in 5.0 mi SSE 5.8 mph - 0.09 in Rain Heavy Rain
8:55 AM 59.0 °F 57.2 °F 94% 29.52 in 5.0 mi South 3.5 mph - 0.15 in Rain Rain
9:15 AM 59.0 °F 57.2 °F 94% 29.51 in 7.0 mi South 3.5 mph - 0.10 in Rain Rain
9:35 AM 60.8 °F 57.2 °F 88% 29.51 in 10.0 mi SSW 6.9 mph - 0.13 in Rain Light Rain
9:55 AM 60.8 °F 57.2 °F 88% 29.51 in 10.0 mi WSW 16.1 mph 20.7 mph 0.17 in Rain Heavy Rain
10:15 AM 62.6 °F 59.0 °F 88% 29.53 in 10.0 mi West 19.6 mph 25.3 mph N/A Rain Light Rain
10:35 AM 62.6 °F 57.2 °F 82% 29.53 in 10.0 mi WNW 24.2 mph 29.9 mph 0.01 in Rain Rain
10:55 AM 62.6 °F 57.2 °F 82% 29.54 in 10.0 mi WNW 25.3 mph 32.2 mph 0.02 in   Scattered Clouds
11:15 AM 64.4 °F 57.2 °F 77% 29.56 in 10.0 mi WNW 20.7 mph 32.2 mph N/A   Clear
11:35 AM 64.4 °F 57.2 °F 77% 29.59 in 10.0 mi West 21.9 mph 26.5 mph N/A   Clear
11:55 AM 66.2 °F 57.2 °F 73% 29.61 in 10.0 mi West 20.7 mph 29.9 mph N/A   Scattered Clouds
12:15 PM 66.2 °F 57.2 °F 73% 29.63 in 10.0 mi West 21.9 mph 25.3 mph N/A   Clear
12:35 PM 68.0 °F 55.4 °F 64% 29.64 in 10.0 mi West 19.6 mph 26.5 mph N/A   Clear
12:55 PM 68.0 °F 57.2 °F 68% 29.66 in 10.0 mi West 20.7 mph 31.1 mph N/A   Scattered Clouds
1:15 PM 69.8 °F 55.4 °F 60% 29.67 in 10.0 mi West 26.5 mph 29.9 mph N/A   Scattered Clouds
1:35 PM 69.8 °F 55.4 °F 60% 29.68 in 10.0 mi West 20.7 mph 28.8 mph N/A   Clear
1:55 PM 71.6 °F 57.2 °F 60% 29.68 in 10.0 mi WSW 24.2 mph 29.9 mph N/A   Clear
2:15 PM 71.6 °F 55.4 °F 57% 29.69 in 10.0 mi WSW 19.6 mph - N/A   Clear
2:35 PM 71.6 °F 57.2 °F 60% 29.69 in 10.0 mi WSW 21.9 mph 27.6 mph N/A   Clear
2:55 PM 71.6 °F 57.2 °F 60% 29.70 in 10.0 mi WSW 24.2 mph 31.1 mph N/A   Clear
3:15 PM 71.6 °F 55.4 °F 57% 29.71 in 10.0 mi WSW 23.0 mph 32.2 mph N/A   Clear
3:36 PM 71.6 °F 55.4 °F 57% 29.71 in 10.0 mi West 19.6 mph 26.5 mph N/A   Clear
3:55 PM 73.4 °F 55.4 °F 53% 29.71 in 10.0 mi West 16.1 mph 25.3 mph N/A   Clear
4:15 PM 73.4 °F 55.4 °F 53% 29.71 in 10.0 mi WSW 18.4 mph - N/A   Clear
4:35 PM 73.4 °F 55.4 °F 53% 29.70 in 10.0 mi WSW 18.4 mph - N/A   Clear
4:55 PM 73.4 °F 55.4 °F 53% 29.70 in 10.0 mi WSW 16.1 mph 24.2 mph N/A   Clear
5:15 PM 73.4 °F 53.6 °F 50% 29.71 in 10.0 mi WSW 16.1 mph 23.0 mph N/A   Clear
5:35 PM 73.4 °F 53.6 °F 50% 29.71 in 10.0 mi WSW 15.0 mph 27.6 mph N/A   Clear
5:55 PM 73.4 °F 53.6 °F 50% 29.71 in 10.0 mi WSW 16.1 mph 24.2 mph N/A   Clear
6:15 PM 75.2 °F 51.8 °F 44% 29.71 in 10.0 mi West 19.6 mph 25.3 mph N/A   Clear
6:35 PM 73.4 °F 53.6 °F 50% 29.71 in 10.0 mi WSW 16.1 mph - N/A   Clear
6:55 PM 73.4 °F 53.6 °F 50% 29.72 in 10.0 mi West 15.0 mph - N/A   Clear
7:15 PM 73.4 °F 53.6 °F 50% 29.73 in 10.0 mi West 17.3 mph - N/A   Clear
7:35 PM 73.4 °F 53.6 °F 50% 29.74 in 10.0 mi West 18.4 mph 21.9 mph N/A   Clear
7:55 PM 71.6 °F 51.8 °F 50% 29.75 in 10.0 mi WSW 12.7 mph - N/A   Clear
8:15 PM 71.6 °F 53.6 °F 53% 29.76 in 10.0 mi WSW 10.4 mph - N/A   Clear
8:35 PM 69.8 °F 53.6 °F 56% 29.76 in 10.0 mi WSW 8.1 mph - N/A   Clear
8:55 PM 68.0 °F 53.6 °F 60% 29.77 in 10.0 mi WSW 8.1 mph - N/A   Clear
9:15 PM 66.2 °F 53.6 °F 64% 29.78 in 10.0 mi SW 6.9 mph - N/A   Clear
9:35 PM 66.2 °F 53.6 °F 64% 29.79 in 10.0 mi SW 9.2 mph - N/A   Clear
9:55 PM 66.2 °F 53.6 °F 64% 29.80 in 10.0 mi SW 8.1 mph - N/A   Scattered Clouds
10:15 PM 66.2 °F 53.6 °F 64% 29.80 in 10.0 mi SW 8.1 mph - N/A   Scattered Clouds
10:35 PM 66.2 °F 53.6 °F 64% 29.81 in 10.0 mi SW 6.9 mph - N/A   Scattered Clouds
10:55 PM 66.2 °F 53.6 °F 64% 29.82 in 10.0 mi SW 4.6 mph - N/A   Scattered Clouds
11:15 PM 66.2 °F 53.6 °F 64% 29.82 in 10.0 mi SSW 4.6 mph - N/A   Scattered Clouds
11:35 PM 66.2 °F 51.8 °F 60% 29.83 in 10.0 mi SW 6.9 mph - N/A   Clear
11:55 PM 66.2 °F 51.8 °F 60% 29.83 in 10.0 mi SSW 4.6 mph - N/A   Clear